GW6155 Weather Reports


time (UTC)temp
C
wind
direction
speed
KPH
gust
KPH
rain 1hr
cm
rain 24hr
cm
rain mn
cm
humidity
%
barometer
mb
20260508005318 12 230 4.8 4.8 0.00 0.91 0.91 53 1007.0
20260508004815 12 228 3.2 4.8 0.00 0.91 0.91 52 1006.9
20260508004310 12 247 3.2 8.0 0.00 0.91 0.91 52 1006.5
20260508003807 12 276 1.6 4.8 0.00 0.91 0.91 55 1006.2
20260508003305 12 225 3.2 6.4 0.00 0.91 0.91 52 1006.3
20260508002801 12 208 3.2 6.4 0.00 0.91 0.91 51 1006.3
20260508002258 12 245 3.2 4.8 0.00 0.91 0.91 52 1006.2
20260508001754 12 228 3.2 4.8 0.00 0.91 0.91 51 1006.1
20260508001249 13 229 3.2 4.8 0.00 0.91 0.91 50 1006.0
20260508000746 13 257 3.2 6.4 0.00 0.91 0.91 50 1006.0
20260508000243 13 262 0.0 3.2 0.00 0.91 0.91 51 1005.9
20260507235739 13 295 0.0 6.4 0.00 0.91 0.91 51 1006.0
20260507235237 13 246 3.2 3.2 0.00 0.91 0.91 58 1005.8
20260507234734 13 255 0.0 4.8 0.00 0.91 0.91 63 1005.8
20260507234230 13 180 1.6 3.2 0.00 0.91 0.91 68 1006.1
20260507233727 13 249 0.0 3.2 0.00 0.91 0.91 66 1006.0
20260507233225 13 180 0.0 1.6 0.00 0.91 0.91 67 1005.9
20260507232722 13 345 0.0 4.8 0.00 0.91 0.91 66 1005.9
20260507232219 13 203 0.0 4.8 0.00 0.91 0.91 68 1005.9
20260507231715 13 257 0.0 4.8 0.00 0.91 0.91 69 1005.9
20260507231213 14 265 3.2 4.8 0.00 0.91 0.91 70 1005.8
20260507230709 13 174 1.6 3.2 0.00 0.91 0.91 69 1005.6
20260507230207 14 200 0.0 3.2 0.00 0.91 0.91 68 1005.8
20260507225706 15 81 0.0 3.2 0.00 0.91 0.91 66 1005.3
20260507225203 15 103 4.8 4.8 0.00 0.91 0.91 66 1005.4
20260507224658 15 216 0.0 3.2 0.00 0.91 0.91 65 1005.5
20260507224155 15 165 0.0 3.2 0.00 0.91 0.91 66 1005.3
20260507223651 15 175 1.6 4.8 0.00 0.91 0.91 67 1005.0
20260507223148 15 160 1.6 8.0 0.00 0.91 0.91 68 1005.3
20260507222645 15 143 6.4 6.4 0.00 0.91 0.91 68 1005.4
20260507222141 15 221 3.2 8.0 0.00 0.91 0.91 68 1005.0
20260507221638 15 159 8.0 8.0 0.00 0.91 0.91 67 1005.5
20260507221134 15 236 6.4 8.0 0.00 0.91 0.91 67 1005.2
20260507220631 15 135 4.8 6.4 0.00 0.91 0.91 67 1005.2
20260507220129 15 132 3.2 6.4 0.00 0.91 0.91 67 1005.1
20260507215625 15 160 1.6 8.0 0.00 0.91 0.91 68 1005.0
20260507215123 15 160 4.8 9.7 0.00 0.91 0.91 69 1005.1
20260507214620 15 96 8.0 12.9 0.00 0.91 0.91 70 1005.1
20260507214116 15 144 3.2 4.8 0.00 0.91 0.91 69 1005.1
20260507213612 15 80 0.0 8.0 0.00 0.91 0.91 69 1004.9
20260507213110 15 151 6.4 12.9 0.00 0.91 0.91 69 1005.0
20260507212606 15 151 1.6 8.0 0.00 0.91 0.91 67 1005.2
20260507212102 15 166 8.0 14.5 0.00 0.91 0.91 66 1004.9
20260507211559 15 125 9.7 11.3 0.00 0.91 0.91 64 1005.0
20260507211055 15 120 9.7 11.3 0.00 0.91 0.91 64 1005.1
20260507210553 15 98 11.3 17.7 0.00 0.91 0.91 63 1005.1
20260507210049 15 119 3.2 9.7 0.00 0.91 0.91 62 1005.0
20260507205546 14 101 8.0 22.5 0.00 0.91 0.91 62 1004.9
20260507205042 14 125 4.8 9.7 0.00 0.91 0.91 61 1004.9
20260507204538 14 67 8.0 16.1 0.00 0.91 0.91 62 1005.2
20260507204036 15 170 4.8 8.0 0.00 0.91 0.91 62 1004.9
20260507203534 14 105 11.3 17.7 0.00 0.91 0.91 61 1004.9
20260507203031 14 228 3.2 14.5 0.00 0.91 0.91 60 1004.8
20260507202527 14 103 17.7 17.7 0.00 0.91 0.91 60 1004.7
20260507202023 14 151 4.8 12.9 0.00 0.91 0.91 60 1005.0
20260507201519 13 92 11.3 20.9 0.00 0.91 0.91 60 1004.9
20260507201015 15 95 9.7 9.7 0.00 0.91 0.91 59 1004.7
20260507200511 15 151 1.6 20.9 0.00 0.91 0.91 60 1004.9
20260507200007 15 153 6.4 9.7 0.00 0.91 0.91 60 1005.2
20260507195504 14 90 8.0 14.5 0.00 0.91 0.91 60 1005.0
20260507195002 15 151 4.8 9.7 0.00 0.91 0.91 60 1005.2
20260507194458 14 142 4.8 14.5 0.00 0.91 0.91 61 1005.0
20260507193954 14 129 12.9 17.7 0.00 0.91 0.91 62 1005.3
20260507193452 13 161 6.4 16.1 0.00 0.91 0.91 60 1005.4
20260507192948 13 90 0.0 19.3 0.00 0.91 0.91 62 1005.4
20260507192444 14 99 9.7 9.7 0.00 0.91 0.91 62 1005.4
20260507191941 13 112 8.0 17.7 0.00 0.91 0.91 63 1005.3
20260507191437 13 109 8.0 20.9 0.00 0.91 0.91 62 1005.6
20260507190934 13 60 3.2 14.5 0.00 0.91 0.91 62 1005.5
20260507190432 15 84 4.8 11.3 0.00 0.91 0.91 60 1005.5
20260507185931 14 66 6.4 27.4 0.00 0.91 0.91 61 1005.6
20260507185427 15 168 1.6 12.9 0.00 0.91 0.91 62 1005.5
20260507184924 15 166 6.4 11.3 0.00 0.91 0.91 61 1005.7
20260507184422 14 158 9.7 17.7 0.00 0.91 0.91 59 1005.9
20260507183919 14 132 3.2 14.5 0.00 0.91 0.91 62 1005.8
20260507183416 14 72 6.4 20.9 0.00 0.91 0.91 62 1005.6
20260507182914 14 101 3.2 19.3 0.00 0.91 0.91 63 1005.8
20260507182409 14 138 4.8 12.9 0.00 0.91 0.91 64 1006.1
20260507181906 14 85 3.2 12.9 0.00 0.91 0.91 63 1005.8
20260507181402 14 101 4.8 9.7 0.00 0.91 0.91 63 1005.9
20260507180859 14 162 4.8 16.1 0.00 0.91 0.91 64 1006.0
20260507180355 15 206 3.2 8.0 0.00 0.91 0.91 65 1005.7
20260507175851 13 206 4.8 6.4 0.00 0.91 0.91 68 1006.3
20260507175348 13 119 3.2 11.3 0.00 0.91 0.91 67 1006.1
20260507174846 13 170 6.4 12.9 0.00 0.91 0.91 65 1006.2
20260507174343 14 140 4.8 14.5 0.00 0.91 0.91 63 1006.2
20260507173840 14 90 4.8 14.5 0.00 0.91 0.91 64 1006.0
20260507173337 15 163 6.4 9.7 0.00 0.91 0.91 61 1006.1
20260507172833 13 102 17.7 19.3 0.00 0.91 0.91 63 1006.2
20260507172330 14 109 8.0 16.1 0.00 0.91 0.91 67 1006.3
20260507171826 13 38 4.8 17.7 0.00 0.91 0.91 62 1006.2
20260507171323 14 96 6.4 11.3 0.00 0.91 0.91 68 1006.2
20260507170820 13 104 9.7 11.3 0.00 0.91 0.91 65 1006.6
20260507170317 13 71 8.0 12.9 0.00 0.91 0.91 64 1006.6
20260507165813 13 66 6.4 9.7 0.00 0.91 0.91 62 1006.5
20260507165309 13 261 0.0 14.5 0.00 0.91 0.91 64 1006.5
20260507164805 13 155 6.4 11.3 0.00 0.91 0.91 65 1006.6
20260507164302 13 99 4.8 11.3 0.00 0.91 0.91 62 1006.6
20260507163759 13 90 9.7 11.3 0.00 0.91 0.91 64 1006.6
20260507163257 13 75 6.4 8.0 0.00 0.91 0.91 69 1006.8
20260507162753 13 72 6.4 9.7 0.00 0.91 0.91 67 1006.9
20260507162249 12 46 4.8 16.1 0.00 0.91 0.91 69 1006.8
20260507161746 13 120 9.7 14.5 0.00 0.91 0.91 66 1006.9
20260507161242 13 70 3.2 9.7 0.00 0.91 0.91 69 1007.0
20260507160738 12 17 0.0 9.7 0.00 0.91 0.91 69 1007.0
20260507160235 12 47 4.8 17.7 0.00 0.91 0.91 70 1007.1
20260507155731 12 57 9.7 17.7 0.00 0.91 0.91 68 1007.4
20260507155227 12 52 12.9 16.1 0.00 0.91 0.91 67 1007.4
20260507154724 13 45 4.8 14.5 0.00 0.91 0.91 69 1007.4
20260507154221 13 48 8.0 11.3 0.00 0.91 0.91 70 1007.4
20260507153718 12 67 9.7 19.3 0.00 0.91 0.91 69 1007.5
20260507153214 13 90 9.7 16.1 0.00 0.91 0.91 72 1007.4
20260507152711 13 58 16.1 17.7 0.00 0.91 0.91 66 1007.2
20260507152207 13 68 6.4 14.5 0.00 0.91 0.91 69 1007.6
20260507151703 14 55 8.0 14.5 0.00 0.91 0.91 72 1007.6
20260507151200 13 49 9.7 17.7 0.00 0.91 0.91 67 1007.6
20260507150657 14 82 12.9 16.1 0.00 0.91 0.91 63 1007.4
20260507150154 15 18 3.2 4.8 0.00 0.91 0.91 66 1007.6
20260507145649 15 5 3.2 14.5 0.00 0.91 0.91 65 1007.6
20260507145147 15 358 6.4 6.4 0.00 0.91 0.91 68 1007.6
20260507144643 13 339 8.0 16.1 0.00 0.91 0.91 63 1007.7
20260507144141 13 21 4.8 11.3 0.00 0.91 0.91 65 1007.8
20260507143637 14 16 3.2 8.0 0.00 0.91 0.91 70 1007.7
20260507143135 13 335 8.0 14.5 0.00 0.91 0.91 66 1007.9
20260507142630 13 339 4.8 14.5 0.00 0.91 0.91 71 1007.8
20260507142127 13 331 9.7 14.5 0.00 0.91 0.91 71 1007.8
20260507141623 13 322 8.0 16.1 0.00 0.91 0.91 72 1008.1
20260507141120 13 320 4.8 6.4 0.00 0.91 0.91 75 1008.0
20260507140617 13 327 8.0 19.3 0.00 0.91 0.91 74 1008.0
20260507140114 13 321 9.7 14.5 0.00 0.91 0.91 76 1008.0
20260507135611 13 349 1.6 9.7 0.00 0.91 0.91 79 1007.8
20260507135109 12 344 0.0 8.0 0.00 0.91 0.91 79 1007.9
20260507134605 12 336 3.2 6.4 0.00 0.91 0.91 80 1008.1
20260507134101 12 337 6.4 11.3 0.00 0.91 0.91 83 1008.1
20260507133557 11 346 6.4 9.7 0.00 0.91 0.91 85 1007.9
20260507133055 11 354 4.8 8.0 0.00 0.91 0.91 87 1007.8
20260507132551 11 277 6.4 9.7 0.00 0.91 0.91 89 1008.1
20260507132048 11 42 4.8 8.0 0.00 0.91 0.91 91 1007.9
20260507131544 11 288 4.8 6.4 0.00 0.91 0.91 92 1008.0
20260507131042 10 340 0.0 6.4 0.00 0.91 0.91 92 1008.0
20260507130539 10 277 0.0 4.8 0.00 0.91 0.91 93 1007.9
20260507130037 10 180 0.0 3.2 0.00 0.91 0.91 93 1008.2
20260507125535 10 311 3.2 8.0 0.00 0.91 0.91 93 1007.9
20260507125032 10 180 1.6 3.2 0.00 0.91 0.91 94 1008.1
20260507124528 10 337 1.6 8.0 0.00 0.91 0.91 93 1008.2
20260507124026 10 279 0.0 4.8 0.00 0.91 0.91 94 1008.3
20260507123524 10 192 3.2 9.7 0.00 0.91 0.91 94 1008.2
20260507123021 10 259 3.2 4.8 0.00 0.91 0.91 94 1008.3
20260507122516 9 192 3.2 6.4 0.00 0.91 0.91 94 1008.4
20260507122012 9 204 3.2 6.4 0.00 0.91 0.91 94 1008.1
20260507121508 9 241 3.2 4.8 0.00 0.91 0.91 94 1007.8
20260507121004 8 319 3.2 6.4 0.00 0.91 0.91 94 1007.9
20260507120500 8 340 0.0 4.8 0.00 0.91 0.91 94 1007.7
20260507115957 8 261 0.0 3.2 0.13 0.91 0.91 94 1008.0
20260507115453 8 237 0.0 1.6 0.05 0.91 0.91 94 1007.7
20260507114949 8 180 0.0 3.2 0.05 0.89 0.89 94 1007.9
20260507114445 8 180 1.6 3.2 0.30 0.89 0.89 94 1007.9
20260507113943 8 294 0.0 4.8 0.30 0.89 0.89 94 1008.0
20260507113440 8 23 0.0 4.8 0.05 0.86 0.86 94 1007.5
20260507112937 8 345 0.0 6.4 0.13 0.84 0.84 93 1007.7
20260507112435 8 345 0.0 4.8 0.13 0.84 0.84 94 1007.7
20260507111931 8 307 3.2 4.8 0.00 0.81 0.81 93 1008.0
20260507111429 8 300 3.2 3.2 0.00 0.81 0.81 94 1008.1
20260507110925 8 101 0.0 4.8 0.00 0.81 0.81 93 1008.2
20260507110421 8 236 0.0 6.4 0.05 0.81 0.81 94 1007.5
20260507105918 8 3 3.2 11.3 0.18 0.81 0.81 94 1007.2
20260507105415 8 335 4.8 6.4 0.13 0.81 0.81 93 1007.4
20260507104911 8 334 3.2 11.3 0.05 0.79 0.79 94 1007.5
20260507104408 8 355 4.8 11.3 0.05 0.79 0.79 94 1007.5
20260507103904 8 341 4.8 6.4 0.13 0.79 0.79 94 1007.7
20260507103401 8 319 3.2 8.0 0.13 0.79 0.79 94 1007.8
20260507102857 9 335 9.7 9.7 0.13 0.76 0.76 94 1007.9
20260507102353 10 350 0.0 6.4 0.18 0.76 0.76 94 1008.1
20260507101850 10 354 6.4 6.4 0.18 0.74 0.74 94 1007.6
20260507101350 10 336 3.2 8.0 0.18 0.74 0.74 94 1007.4
20260507100848 10 219 0.0 6.4 0.05 0.71 0.71 94 1007.4
20260507100345 10 340 0.0 6.4 0.05 0.71 0.71 94 1007.3
20260507095843 10 257 0.0 9.7 0.05 0.71 0.71 94 1007.5
20260507095339 10 245 6.4 8.0 0.05 0.69 0.69 94 1007.3
20260507094837 10 356 4.8 8.0 0.13 0.69 0.69 94 1007.0
20260507094333 10 345 3.2 4.8 0.05 0.69 0.69 94 1007.3
20260507093830 10 14 1.6 4.8 0.05 0.66 0.66 94 1007.1
20260507093329 10 286 3.2 8.0 0.13 0.66 0.66 94 1006.7
20260507092826 10 270 0.0 9.7 0.05 0.66 0.66 94 1007.2
20260507092323 10 286 0.0 3.2 0.00 0.66 0.66 94 1007.3
20260507091819 10 286 0.0 3.2 0.00 0.66 0.66 94 1007.3
20260507091316 10 297 1.6 8.0 0.13 0.66 0.66 94 1006.9
20260507090811 10 306 0.0 4.8 0.18 0.66 0.66 94 1006.6
20260507090308 10 325 0.0 4.8 0.13 0.64 0.64 94 1006.8
20260507085805 10 0 1.6 8.0 0.13 0.61 0.61 94 1006.7
20260507085301 10 343 3.2 3.2 0.18 0.61 0.61 93 1006.7
20260507084759 10 337 0.0 3.2 0.23 0.61 0.61 93 1006.6
20260507084255 11 356 0.0 3.2 0.23 0.58 0.58 93 1006.5
20260507083753 11 324 0.0 4.8 0.53 0.56 0.56 93 1006.6
20260507083249 12 254 0.0 3.2 0.97 0.53 0.53 93 1006.8
20260507082745 12 340 0.0 6.4 0.84 0.46 0.46 93 1006.6
20260507082241 12 279 0.0 12.9 0.84 0.38 0.38 93 1006.6
20260507081738 12 311 3.2 4.8 0.71 0.33 0.33 93 1006.9
20260507081234 12 0 0.0 6.4 0.30 0.23 0.23 93 1006.5
20260507080731 12 283 3.2 4.8 0.48 0.20 0.20 93 1006.5
20260507080227 12 289 3.2 6.4 0.66 0.18 0.18 92 1006.7
20260507075722 12 0 8.0 9.7 0.79 0.13 0.13 92 1006.7
20260507075219 12 270 4.8 14.5 0.48 0.08 0.08 92 1006.5
20260507074715 12 8 8.0 12.9 0.00 0.00 0.00 93 1006.2
20260507074214 12 309 3.2 4.8 0.00 0.00 0.00 93 1005.5
20260507073710 12 352 0.0 3.2 0.00 0.00 0.00 93 1005.7
20260507073206 12 75 3.2 9.7 0.00 0.00 0.00 93 1005.7
20260507072704 13 82 0.0 3.2 0.00 0.00 0.00 93 1005.4
20260507072201 13 261 0.0 1.6 0.00 0.00 0.00 93 1005.8
20260507071659 13 270 0.0 3.2 0.00 0.00 0.00 93 1005.7
20260507071155 13 286 0.0 1.6 0.00 0.00 0.00 93 1005.9
20260507070652 13 251 0.0 3.2 0.00 0.00 0.00 93 1005.9
20260507070149 13 286 0.0 0.0 0.00 0.00 0.00 93 1005.6
20260507065645 13 209 0.0 1.6 0.00 0.00 0.00 93 1005.7
20260507065142 13 8 0.0 3.2 0.00 0.00 0.00 93 1005.6
20260507064640 13 277 0.0 4.8 0.00 0.00 0.00 93 1005.6
20260507064138 13 215 1.6 4.8 0.00 0.00 0.00 93 1005.3
20260507063636 13 285 0.0 4.8 0.00 0.00 0.00 93 1005.4
20260507063132 13 240 1.6 12.9 0.00 0.00 0.00 93 1005.4
20260507062629 13 275 3.2 6.4 0.00 0.00 0.00 93 1005.7
20260507062127 13 237 4.8 9.7 0.00 0.00 0.00 93 1005.9
20260507061624 13 270 1.6 6.4 0.00 0.00 0.00 93 1005.9
20260507061122 13 240 0.0 8.0 0.00 0.00 0.00 93 1005.8
20260507060620 13 239 4.8 4.8 0.00 0.00 0.00 93 1005.9
20260507060116 13 195 6.4 11.3 0.00 0.00 0.00 93 1006.3
20260507055612 13 192 3.2 8.0 0.00 0.00 0.00 93 1006.1
20260507055108 13 195 3.2 9.7 0.00 0.00 0.00 93 1006.1
20260507054604 13 277 1.6 8.0 0.00 0.00 0.00 93 1006.1
20260507054101 13 213 3.2 11.3 0.00 0.00 0.00 93 1006.2
20260507053559 13 276 6.4 9.7 0.00 0.00 0.00 93 1006.3
20260507053058 13 215 4.8 16.1 0.00 0.00 0.00 93 1006.1
20260507052555 13 254 3.2 9.7 0.00 0.00 0.00 93 1006.0
20260507052051 13 341 6.4 11.3 0.00 0.00 0.00 93 1006.1
20260507051549 13 264 3.2 8.0 0.00 0.00 0.00 93 1006.4
20260507051046 13 205 9.7 9.7 0.00 0.00 0.00 93 1006.5
20260507050542 13 201 4.8 9.7 0.00 0.00 0.00 93 1006.5
20260507050039 13 239 3.2 6.4 0.00 0.00 0.00 93 1006.3
20260507045535 13 201 4.8 9.7 0.00 0.00 0.00 93 1006.4
20260507045033 13 209 1.6 12.9 0.00 0.00 0.00 93 1006.2
20260507044529 13 251 8.0 8.0 0.00 0.00 0.00 93 1006.2
20260507044026 13 248 3.2 8.0 0.00 0.00 0.00 93 1006.2
20260507043522 13 270 1.6 9.7 0.00 0.00 0.00 93 1006.3
20260507043020 13 249 4.8 14.5 0.00 0.00 0.00 93 1006.0
20260507042515 13 213 0.0 12.9 0.00 0.00 0.00 93 1006.2
20260507042011 13 216 8.0 17.7 0.00 0.00 0.00 93 1006.1
20260507041508 13 206 6.4 6.4 0.00 0.00 0.00 93 1006.2
20260507041005 13 230 3.2 14.5 0.00 0.00 0.00 93 1006.1
20260507040501 13 243 4.8 20.9 0.00 0.00 0.00 93 1006.1
20260507035956 13 235 4.8 12.9 0.00 0.25 0.25 93 1006.4
20260507035454 13 279 6.4 16.1 0.00 0.25 0.25 93 1006.4
20260507034950 13 270 0.0 11.3 0.00 0.25 0.25 93 1006.6
20260507034447 13 195 6.4 14.5 0.00 0.25 0.25 93 1006.7
20260507033945 13 238 14.5 14.5 0.00 0.25 0.25 93 1006.4
20260507033443 13 239 3.2 24.1 0.00 0.25 0.25 93 1006.4
20260507032940 13 234 9.7 14.5 0.00 0.25 0.25 93 1006.1
20260507032437 13 202 8.0 22.5 0.00 0.25 0.25 93 1006.4
20260507031932 13 225 6.4 19.3 0.00 0.25 0.25 93 1006.0
20260507031429 13 227 9.7 14.5 0.00 0.25 0.25 93 1006.0
20260507030926 13 230 3.2 11.3 0.00 0.25 0.25 93 1005.9
20260507030423 13 252 3.2 14.5 0.00 0.25 0.25 93 1006.2
20260507025920 13 253 8.0 16.1 0.00 0.25 0.25 94 1005.9
20260507025418 13 214 9.7 16.1 0.00 0.25 0.25 94 1005.9
20260507024915 13 270 4.8 14.5 0.00 0.25 0.25 94 1005.6
20260507024413 13 230 11.3 25.7 0.00 0.25 0.25 94 1005.8
20260507023908 13 180 1.6 20.9 0.00 0.25 0.25 94 1005.9
20260507023405 13 237 8.0 17.7 0.00 0.25 0.25 94 1006.0
20260507022903 13 171 4.8 9.7 0.00 0.25 0.25 94 1005.9
20260507022359 13 202 6.4 14.5 0.00 0.25 0.25 94 1005.8
20260507021855 13 254 3.2 9.7 0.00 0.25 0.25 94 1006.0
20260507021350 13 270 4.8 22.5 0.00 0.25 0.25 94 1006.2
20260507020849 13 270 0.0 11.3 0.00 0.25 0.25 94 1006.1
20260507020345 13 226 6.4 20.9 0.00 0.25 0.25 94 1006.4
20260507015842 13 206 6.4 9.7 0.00 0.25 0.25 94 1006.5
20260507015340 13 210 3.2 16.1 0.00 0.25 0.25 94 1006.3
20260507014837 13 243 4.8 14.5 0.00 0.25 0.25 94 1006.7
20260507014333 13 256 4.8 9.7 0.00 0.25 0.25 94 1006.3
20260507013829 13 235 3.2 9.7 0.00 0.25 0.25 94 1006.5
20260507013326 13 219 0.0 8.0 0.00 0.25 0.25 94 1006.6
20260507012824 13 228 8.0 17.7 0.00 0.25 0.25 94 1006.9
20260507012320 13 210 4.8 14.5 0.00 0.25 0.25 94 1006.4
20260507011817 13 243 3.2 14.5 0.00 0.25 0.25 94 1006.6
20260507011314 13 197 8.0 24.1 0.00 0.25 0.25 94 1006.7
20260507010814 13 202 8.0 14.5 0.00 0.25 0.25 94 1006.4
20260507010309 13 236 3.2 11.3 0.00 0.25 0.25 94 1006.6
20260507005807 13 254 1.6 12.9 0.00 0.25 0.25 94 1006.5